This is the latest recevied weather packets stored in our database for station/object K0QED. If no packets are shown the sender has not sent any weather packets the latest 10 day(s).
| Time | Temp. | Humidity | Pressure | Rain* | Wind** | Luminosity | Snow |
|---|---|---|---|---|---|---|---|
| 1788208169 | 24.44° C | 34% | 1027.4 hPa | 0 mm | - | 343 W/m² | - |
| 1788207865 | 23.89° C | 35% | 1027.5 hPa | 0 mm | - | 377 W/m² | - |
| 1788207564 | 23.89° C | 34% | 1027.5 hPa | 0 mm | - | 269 W/m² | - |
| 1788207262 | 23.33° C | 38% | 1027.7 hPa | 0 mm | - | 191 W/m² | - |
| 1788206959 | 23.33° C | 37% | 1027.7 hPa | 0 mm | - | 124 W/m² | - |
| 1788206664 | 23.89° C | 36% | 1027.6 hPa | 0 mm | - | 100 W/m² | - |
| 1788206348 | 23.33° C | 35% | 1028 hPa | 0 mm | - | 104 W/m² | - |
| 1788206044 | 23.89° C | 37% | 1027.7 hPa | 0 mm | - | 111 W/m² | - |
| 1788205739 | 23.33° C | 36% | 1027.6 hPa | 0 mm | - | 126 W/m² | - |
| 1788205434 | 23.33° C | 36% | 1027.5 hPa | 0 mm | - | 112 W/m² | - |
| 1788205133 | 23.89° C | 36% | 1027.7 hPa | 0 mm | - | 121 W/m² | - |
| 1788204829 | 23.89° C | 35% | 1028 hPa | 0 mm | - | 156 W/m² | - |
| 1788204524 | 24.44° C | 36% | 1027.9 hPa | 0 mm | - | 203 W/m² | - |
| 1788204218 | 25° C | 34% | 1028 hPa | 0 mm | - | 226 W/m² | - |
| 1788203914 | 25.56° C | 33% | 1028 hPa | 0 mm | - | 312 W/m² | - |
| 1788203610 | 25° C | 34% | 1028.1 hPa | 0 mm | - | 548 W/m² | - |
| 1788203306 | 24.44° C | 34% | 1028.2 hPa | 0 mm | - | 450 W/m² | - |
| 1788203006 | 24.44° C | 33% | 1028.2 hPa | 0 mm | - | 415 W/m² | - |
| 1788202705 | 25° C | 33% | 1028.4 hPa | 0 mm | - | 413 W/m² | - |
| 1788202401 | 24.44° C | 35% | 1028.4 hPa | 0 mm | - | 354 W/m² | - |
| 1788202100 | 24.44° C | 33% | 1028.4 hPa | 0 mm | - | 276 W/m² | - |
| 1788201796 | 24.44° C | 33% | 1028.2 hPa | 0 mm | - | 327 W/m² | - |
| 1788201490 | 23.89° C | 35% | 1028.4 hPa | 0 mm | - | 271 W/m² | - |
| 1788201190 | 24.44° C | 33% | 1028.6 hPa | 0 mm | - | 251 W/m² | - |
| 1788200889 | 25° C | 35% | 1028.5 hPa | 0 mm | - | 268 W/m² | - |
* Rain latest hour (hover to see other rain measurements)
** Current wind speed in m/s (hover to see current wind gust speed)